Home > Weather > Daegu > Past weeks

Flag for South Korea Weather for the Past 2 Weeks in Daegu, South Korea

Now
52 °F

Fog.


Feels Like: 52 °F
Forecast: 27 / 58 °F
Wind: 1 mph from West

Location: Taegu Ab

Current Time: Feb 13, 2016 at 10:16:49 AM

Latest Report: Feb 13, 2016 at 9:00 AM


Visibility: 1 mi

Pressure: 29.92 "Hg

Humidity: 100%

Dew point: 52 °F

Location of DaeguLocation

Historic Weather in Daegu — Graph

°F

Daegu Temperature Yesterday

Maximum temperature yesterday: 57 °F (at 5:00 PM)
Minimum temperature yesterday: 43 °F (at 6:00 AM)
Average temperature yesterday: 50 °F

High & Low Weather Summary for the Past Weeks

 TemperatureHumidityPressure
High57 °F (Feb 11, 4:00 PM)100% (Jan 29, 12:00 PM)30.39 "Hg (Jan 29, 12:00 PM)
Low19 °F (Feb 3, 4:00 AM)10% (Feb 10, 3:00 PM)29.89 "Hg (Feb 9, 1:00 AM)
Average36 °F55%30.21 "Hg
* Reported Jan 29 9:00 AM — Feb 13 9:00 AM, Daegu, Weather by CustomWeather, © 2016

Note: Actual official high and low records may vary slightly from our data, if they occured in-between our weather recording intervals... More about our weather records

Advertising

Daegu Weather History for the Previous 24 Hours

 ConditionsComfort  
Time TempWeatherWind HumidityBarometerVisibility
9:00 AM
Sat, Feb 13
52 °FFog.1 mph100%29.92 "Hg1 mi
8:02 AM50 °FFog.1 mph100%29.92 "Hg1 mi
7:00 AM52 °FDrizzle. Fog.2 mph94%29.89 "Hg1 mi
6:00 AM52 °FDrizzle. Fog.2 mph94%29.92 "Hg1 mi
5:00 AM52 °FLight rain. Fog.1 mph100%29.95 "Hg1 mi
4:00 AM52 °FLight rain. Fog.1 mph100%29.95 "Hg1 mi
3:00 AM52 °FLight rain. Fog.2 mph94%29.95 "Hg1 mi
2:00 AM52 °FLight rain. Fog.2 mph94%29.98 "Hg1 mi
1:00 AM52 °FLight rain. Fog.1 mph94%29.98 "Hg1 mi
12:00 AM52 °FDrizzle. Fog.1 mph94%30.01 "Hg1 mi
11:00 PM
Fri, Feb 12
52 °FDrizzle. Fog.1 mph94%30.01 "Hg1 mi
10:00 PM52 °FDrizzle. Fog.1 mph94%30.04 "Hg1 mi
9:00 PM54 °FLight rain. Fog.1 mph94%30.04 "Hg2 mi
8:00 PM54 °FLight rain. Fog.1 mph94%30.04 "Hg3 mi
7:00 PM55 °FLight rain. Fog.1 mph88%30.04 "Hg3 mi
6:00 PM55 °FLight rain. Fog.1 mph88%30.04 "Hg3 mi
5:00 PM57 °FLight rain. Fog.1 mph82%30.01 "Hg3 mi
4:00 PM55 °FLight rain. Fog.1 mph88%30.04 "Hg3 mi
3:00 PM55 °FLight rain. Fog.1 mph88%30.04 "Hg3 mi
2:00 PM55 °FLight rain. Fog.5 mph88%30.07 "Hg3 mi
1:00 PM55 °FLight rain. Fog.5 mph94%30.09 "Hg3 mi
12:00 PM54 °FLight rain. Fog.3 mph94%30.12 "Hg2 mi
11:00 AM50 °FLight rain. Fog.1 mph94%30.12 "Hg3 mi
10:00 AM45 °FLight rain. Fog.1 mph93%30.15 "Hg3 mi
Weather by CustomWeather, © 2016

See weather overviewHow to use our weather pages